Location: Saluda
(35.2377°N, 82.3468°W)
Time: 16:50:41
(UTC+00:00)

Explorer 11/Cluster Stage 4 - Pass Details

Date: 04 October 2022
Orbit: 466 x 1247 km, 28.8° (Epoch: 08 December)

Event Time Altitude Azimuth Distance (km) Brightness Sun altitude
Rises 15:10:23 0° 224° (SW) 4,124 10.3 40.2°
Reaches altitude 10° 15:13:40 10° 214° (SW) 3,197 9.9 40.7°
Maximum altitude 15:20:27 30° 158° (SSE) 2,072 10.5 41.6°
Drops below altitude 10° 15:27:03 10° 101° (ESE) 3,096 10.4 42.5°
Sets 15:30:09 0° 91° (E) 3,975 10.6 42.9°
